Time,TemperatureF,DewpointF,PressureIn,WindDirection,WindDirectionDegrees,WindSpeedMPH,WindSpeedGustMPH,Humidity,HourlyPrecipIn,Conditions,Clouds,dailyrainin,SoftwareType,DateUTC
2013-12-22 00:09:00,33.8,33.3,29.49,NNE,26,7.2,13.4,98,0.00,,OVC007,0.00,VWS V14.00,2013-12-22 06:09:00,
2013-12-22 00:19:00,33.8,33.3,29.49,NNE,15,6.3,12.5,98,0.00,,OVC007,0.00,VWS V14.00,2013-12-22 06:19:00,
2013-12-22 00:29:00,33.8,33.3,29.52,North,2,10.7,11.6,98,0.00,,,0.00,VWS V14.00,2013-12-22 06:29:00,
2013-12-22 00:39:00,33.6,33.1,29.52,NNE,29,7.2,15.2,98,0.00,,,0.00,VWS V14.00,2013-12-22 06:39:00,
2013-12-22 00:49:00,33.6,33.1,29.52,North,3,5.4,10.7,98,0.00,,,0.00,VWS V14.00,2013-12-22 06:49:00,
2013-12-22 00:59:00,33.6,33.1,29.52,NNW,335,8.1,12.5,98,0.00,,OVC012,0.00,VWS V14.00,2013-12-22 06:59:00,
2013-12-22 01:10:00,33.6,33.1,29.52,NW,326,4.5,14.3,98,0.00,,OVC012,0.00,VWS V14.00,2013-12-22 07:10:00,
2013-12-22 01:20:00,33.6,33.1,29.52,North,358,5.4,11.6,98,0.00,,OVC012,0.00,VWS V14.00,2013-12-22 07:20:00,
2013-12-22 01:30:00,33.3,32.8,29.52,North,11,0.0,11.6,98,0.00,,OVC008,0.00,VWS V14.00,2013-12-22 07:30:00,
2013-12-22 01:39:00,33.3,32.8,29.49,North,356,7.2,11.6,98,0.00,,OVC008,0.00,VWS V14.00,2013-12-22 07:39:00,
2013-12-22 01:49:00,33.1,32.6,29.49,NNW,347,8.1,11.6,98,0.00,,OVC006,0.00,VWS V14.00,2013-12-22 07:49:00,
2013-12-22 01:59:00,33.1,32.6,29.52,NNE,15,10.7,16.6,98,0.00,,OVC006,0.00,VWS V14.00,2013-12-22 07:59:00,
2013-12-22 02:09:00,33.1,32.6,29.52,NNW,333,7.2,20.1,98,0.00,,OVC006,0.00,VWS V14.00,2013-12-22 08:09:00,
2013-12-22 02:19:00,33.1,32.6,29.52,NW,316,11.6,16.1,98,0.00,,OVC006,0.00,VWS V14.00,2013-12-22 08:19:00,
2013-12-22 02:29:00,33.1,32.6,29.52,NNW,331,11.6,12.5,98,0.00,,OVC006,0.00,VWS V14.00,2013-12-22 08:29:00,
2013-12-22 02:39:00,33.1,32.6,29.49,NNW,341,8.1,16.6,98,0.00,,OVC006,0.00,VWS V14.00,2013-12-22 08:39:00,
2013-12-22 02:49:00,33.1,32.6,29.49,NNW,339,7.2,25.5,98,0.00,,OVC006,0.00,VWS V14.00,2013-12-22 08:49:00,
2013-12-22 02:59:00,32.9,32.4,29.49,NW,320,8.1,20.1,98,0.00,,OVC006,0.00,VWS V14.00,2013-12-22 08:59:00,
2013-12-22 03:09:00,32.9,32.4,29.49,NNE,20,10.7,16.6,98,0.00,,OVC006,0.00,VWS V14.00,2013-12-22 09:09:00,
2013-12-22 03:19:00,32.7,32.2,29.49,NNE,15,7.2,12.5,98,0.00,,OVC006,0.00,VWS V14.00,2013-12-22 09:19:00,
2013-12-22 03:29:00,32.7,32.2,29.49,NE,46,9.8,16.1,98,0.00,,OVC006,0.00,VWS V14.00,2013-12-22 09:29:00,
2013-12-22 03:39:00,32.7,32.2,29.47,NNW,344,6.3,16.1,98,0.00,,OVC006,0.00,VWS V14.00,2013-12-22 09:39:00,
2013-12-22 03:49:00,32.7,32.2,29.47,North,7,10.7,17.4,98,0.00,,,0.00,VWS V14.00,2013-12-22 09:49:00,
2013-12-22 03:59:00,32.7,32.2,29.49,NE,43,8.1,10.7,98,0.00,,,0.00,VWS V14.00,2013-12-22 09:59:00,
2013-12-22 04:09:00,32.7,32.2,29.49,NE,36,0.0,11.6,98,0.00,,OVC008,0.00,VWS V14.00,2013-12-22 10:09:00,
2013-12-22 04:19:00,32.7,32.2,29.49,NNE,22,0.0,8.1,98,0.00,,OVC008,0.00,VWS V14.00,2013-12-22 10:19:00,
2013-12-22 04:29:00,32.7,32.2,29.49,North,356,0.0,8.1,98,0.00,,OVC008,0.00,VWS V14.00,2013-12-22 10:29:00,
2013-12-22 04:39:00,32.7,32.2,29.49,NE,43,0.0,9.8,98,0.00,,OVC008,0.00,VWS V14.00,2013-12-22 10:39:00,
2013-12-22 04:49:00,32.7,32.2,29.49,NNE,20,0.0,11.6,98,0.00,,OVC008,0.00,VWS V14.00,2013-12-22 10:49:00,
2013-12-22 04:59:00,32.7,32.2,29.49,NNE,18,0.0,0.0,98,0.00,,OVC008,0.00,VWS V14.00,2013-12-22 10:59:00,
2013-12-22 05:08:00,32.7,32.2,29.52,NNW,334,0.0,0.0,98,0.00,,OVC008,0.00,VWS V14.00,2013-12-22 11:08:00,
2013-12-22 05:20:00,32.7,32.2,29.52,NNW,331,0.0,0.0,98,0.00,,OVC008,0.00,VWS V14.00,2013-12-22 11:20:00,
2013-12-22 05:30:00,32.7,32.2,29.55,NNW,331,0.0,0.0,98,0.00,,OVC008,0.00,VWS V14.00,2013-12-22 11:30:00,
2013-12-22 05:39:00,32.7,32.2,29.55,NNW,331,0.0,0.0,98,0.00,,OVC008,0.00,VWS V14.00,2013-12-22 11:39:00,
2013-12-22 05:50:00,32.7,32.2,29.55,NNW,331,0.0,0.0,98,0.00,,OVC008,0.00,VWS V14.00,2013-12-22 11:50:00,
2013-12-22 05:59:00,32.7,32.2,29.55,NNW,331,0.0,0.0,98,0.00,,OVC008,0.00,VWS V14.00,2013-12-22 11:59:00,
2013-12-22 06:09:00,32.7,32.2,29.55,NNW,332,0.0,0.0,98,0.00,,,0.00,VWS V14.00,2013-12-22 12:09:00,
2013-12-22 06:19:00,32.5,32.0,29.55,NNW,332,0.0,0.0,98,0.00,,,0.00,VWS V14.00,2013-12-22 12:19:00,
2013-12-22 06:29:00,32.5,32.0,29.55,NNW,331,0.0,0.0,98,0.00,,,0.00,VWS V14.00,2013-12-22 12:29:00,
2013-12-22 06:39:00,32.5,32.0,29.58,NNW,331,0.0,0.0,98,0.00,,,0.00,VWS V14.00,2013-12-22 12:39:00,
2013-12-22 06:49:00,32.5,32.0,29.58,NNW,331,0.0,0.0,98,0.00,,,0.00,VWS V14.00,2013-12-22 12:49:00,
2013-12-22 06:59:00,32.5,32.0,29.61,NNW,331,0.0,0.0,98,0.00,,,0.00,VWS V14.00,2013-12-22 12:59:00,
2013-12-22 07:09:00,32.4,31.9,29.58,NNW,331,0.0,0.0,98,0.00,,,0.00,VWS V14.00,2013-12-22 13:09:00,
2013-12-22 07:19:00,32.2,31.7,29.58,NNW,332,0.0,0.0,98,0.00,,,0.00,VWS V14.00,2013-12-22 13:19:00,
2013-12-22 07:29:00,32.2,31.7,29.58,NNW,332,0.0,0.0,98,0.00,,,0.00,VWS V14.00,2013-12-22 13:29:00,
2013-12-22 07:39:00,32.2,31.7,29.61,NNW,331,0.0,0.0,98,0.00,,,0.00,VWS V14.00,2013-12-22 13:39:00,
2013-12-22 07:49:00,31.8,31.3,29.61,NNW,331,0.0,0.0,98,0.00,,,0.00,VWS V14.00,2013-12-22 13:49:00,
2013-12-22 07:59:00,31.8,31.3,29.61,NNW,331,0.0,0.0,98,0.00,,,0.00,VWS V14.00,2013-12-22 13:59:00,
2013-12-22 08:09:00,31.6,31.1,29.61,NNW,331,0.0,0.0,98,0.00,,,0.00,VWS V14.00,2013-12-22 14:09:00,
2013-12-22 08:19:00,31.6,31.1,29.61,NNW,331,0.0,0.0,98,0.00,,,0.00,VWS V14.00,2013-12-22 14:19:00,
2013-12-22 08:29:00,31.5,31.0,29.64,NNW,331,0.0,0.0,98,0.00,,,0.00,VWS V14.00,2013-12-22 14:29:00,
2013-12-22 08:39:00,30.7,30.2,29.64,NNW,331,0.0,0.0,98,0.00,,,0.00,VWS V14.00,2013-12-22 14:39:00,
2013-12-22 08:49:00,29.8,29.3,29.64,NNW,331,0.0,0.0,98,0.00,,,0.00,VWS V14.00,2013-12-22 14:49:00,
2013-12-22 08:59:00,29.3,28.8,29.64,NNW,331,0.0,0.0,98,0.00,,,0.00,VWS V14.00,2013-12-22 14:59:00,
2013-12-22 09:09:00,29.1,28.6,29.64,NNW,331,0.0,0.0,98,0.00,,OVC020,0.00,VWS V14.00,2013-12-22 15:09:00,
2013-12-22 09:20:00,29.1,28.6,29.64,NNW,331,0.0,0.0,98,0.00,,OVC020,0.00,VWS V14.00,2013-12-22 15:20:00,
2013-12-22 09:30:00,29.1,28.6,29.64,NNW,331,0.0,0.0,98,0.00,,OVC020,0.00,VWS V14.00,2013-12-22 15:30:00,
2013-12-22 09:40:00,29.1,28.6,29.64,NNW,331,0.0,0.0,98,0.00,,OVC020,0.00,VWS V14.00,2013-12-22 15:40:00,
2013-12-22 09:49:00,29.1,28.6,29.64,NNW,331,0.0,0.0,98,0.00,,OVC006,0.00,VWS V14.00,2013-12-22 15:49:00,
2013-12-22 09:59:00,29.1,28.4,29.67,NNW,331,0.0,0.0,97,0.00,,OVC008,0.00,VWS V14.00,2013-12-22 15:59:00,
2013-12-22 10:09:00,28.9,27.9,29.67,NNW,331,0.0,0.0,96,0.00,,OVC008,0.00,VWS V14.00,2013-12-22 16:09:00,
2013-12-22 10:19:00,28.8,27.8,29.67,NNW,331,0.0,0.0,96,0.00,,OVC008,0.00,VWS V14.00,2013-12-22 16:19:00,
2013-12-22 10:29:00,28.6,27.3,29.70,NNW,331,0.0,0.0,95,0.00,,OVC036,0.00,VWS V14.00,2013-12-22 16:29:00,
2013-12-22 10:39:00,28.6,27.1,29.70,NNW,331,0.0,0.0,94,0.00,,OVC036,0.00,VWS V14.00,2013-12-22 16:39:00,
2013-12-22 10:49:00,28.6,26.8,29.70,NNW,331,0.0,0.0,93,0.00,,OVC031,0.00,VWS V14.00,2013-12-22 16:49:00,
2013-12-22 10:59:00,28.6,26.8,29.70,NNW,331,0.0,0.0,93,0.00,,OVC033,0.00,VWS V14.00,2013-12-22 16:59:00,
2013-12-22 11:09:00,28.4,26.4,29.70,NNW,331,0.0,0.0,92,0.00,,OVC033,0.00,VWS V14.00,2013-12-22 17:09:00,
2013-12-22 11:19:00,28.4,26.1,29.70,NNW,331,0.0,0.0,91,0.00,,OVC033,0.00,VWS V14.00,2013-12-22 17:19:00,
2013-12-22 11:29:00,28.4,25.9,29.70,NNW,331,0.0,0.0,90,0.00,,OVC033,0.00,VWS V14.00,2013-12-22 17:29:00,
2013-12-22 11:39:00,28.4,25.9,29.70,NNW,331,0.0,0.0,90,0.00,,OVC033,0.00,VWS V14.00,2013-12-22 17:39:00,
2013-12-22 11:49:00,28.6,25.8,29.70,NNW,331,0.0,0.0,89,0.00,,OVC035,0.00,VWS V14.00,2013-12-22 17:49:00,
2013-12-22 11:59:00,28.8,25.9,29.70,NNW,331,0.0,0.0,89,0.00,,OVC042,0.00,VWS V14.00,2013-12-22 17:59:00,
2013-12-22 12:09:00,28.6,25.5,29.70,NNW,331,0.0,0.0,88,0.00,,OVC042,0.00,VWS V14.00,2013-12-22 18:09:00,
2013-12-22 12:20:00,28.6,25.5,29.70,NNW,332,0.0,0.0,88,0.00,,OVC042,0.00,VWS V14.00,2013-12-22 18:20:00,
2013-12-22 12:30:00,28.8,25.7,29.70,NNW,331,0.0,0.0,88,0.00,,OVC042,0.00,VWS V14.00,2013-12-22 18:30:00,
2013-12-22 12:40:00,28.6,25.2,29.70,NNW,331,0.0,0.0,87,0.00,,SCT043,0.00,VWS V14.00,2013-12-22 18:40:00,
2013-12-22 12:50:00,28.8,25.4,29.70,NNW,331,0.0,0.0,87,0.00,,SCT034,0.00,VWS V14.00,2013-12-22 18:50:00,
2013-12-22 12:59:00,28.2,24.9,29.70,NNW,331,0.0,0.0,87,0.00,,SCT034,0.00,VWS V14.00,2013-12-22 18:59:00,
2013-12-22 13:09:00,28.4,25.0,29.73,NNW,331,0.0,0.0,87,0.00,,BKN008,0.00,VWS V14.00,2013-12-22 19:09:00,
2013-12-22 13:19:00,28.6,24.9,29.73,NNW,332,0.0,0.0,86,0.00,,BKN008,0.00,VWS V14.00,2013-12-22 19:19:00,
2013-12-22 13:29:00,28.4,24.8,29.76,NNW,331,0.0,0.0,86,0.00,,BKN008,0.00,VWS V14.00,2013-12-22 19:29:00,
2013-12-22 13:39:00,28.2,24.6,29.76,NNW,331,0.0,0.0,86,0.00,,BKN008,0.00,VWS V14.00,2013-12-22 19:39:00,
2013-12-22 13:49:00,28.2,24.3,29.76,NNW,331,0.0,0.0,85,0.00,,BKN029,0.00,VWS V14.00,2013-12-22 19:49:00,
2013-12-22 13:59:00,28.2,24.3,29.76,NNW,332,0.0,0.0,85,0.00,,OVC029,0.00,VWS V14.00,2013-12-22 19:59:00,
2013-12-22 14:09:00,28.4,24.8,29.76,NNW,331,0.0,0.0,86,0.00,,OVC029,0.00,VWS V14.00,2013-12-22 20:09:00,
2013-12-22 14:19:00,28.0,24.1,29.76,NNW,331,0.0,0.0,85,0.00,,OVC029,0.00,VWS V14.00,2013-12-22 20:19:00,
2013-12-22 14:29:00,28.0,24.4,29.79,NNW,331,0.0,0.0,86,0.00,,OVC010,0.00,VWS V14.00,2013-12-22 20:29:00,
2013-12-22 14:39:00,28.0,24.4,29.79,NNW,331,0.0,0.0,86,0.00,,OVC010,0.00,VWS V14.00,2013-12-22 20:39:00,
2013-12-22 14:49:00,28.0,24.7,29.79,NNW,331,0.0,0.0,87,0.00,,OVC010,0.00,VWS V14.00,2013-12-22 20:49:00,
2013-12-22 14:59:00,28.0,24.7,29.79,NNW,331,0.0,0.0,87,0.00,,OVC010,0.00,VWS V14.00,2013-12-22 20:59:00,
2013-12-22 15:09:00,27.9,24.5,29.82,NNW,331,0.0,0.0,87,0.00,,OVC010,0.00,VWS V14.00,2013-12-22 21:09:00,
2013-12-22 15:19:00,27.9,24.5,29.82,NNW,331,0.0,0.0,87,0.00,,OVC010,0.00,VWS V14.00,2013-12-22 21:19:00,
2013-12-22 15:29:00,27.7,24.3,29.82,NNW,331,0.0,0.0,87,0.00,,OVC010,0.00,VWS V14.00,2013-12-22 21:29:00,
2013-12-22 15:39:00,27.5,24.1,29.82,NNW,331,0.0,0.0,87,0.00,,OVC010,0.00,VWS V14.00,2013-12-22 21:39:00,
2013-12-22 15:49:00,27.5,24.1,29.82,NNW,331,0.0,0.0,87,0.00,,OVC010,0.00,VWS V14.00,2013-12-22 21:49:00,
2013-12-22 15:58:00,27.5,24.1,29.82,NNW,331,0.0,0.0,87,0.00,,OVC010,0.00,VWS V14.00,2013-12-22 21:58:00,
2013-12-22 16:10:00,27.3,24.0,29.85,NNW,331,0.0,0.0,87,0.00,,OVC010,0.00,VWS V14.00,2013-12-22 22:10:00,
2013-12-22 16:20:00,27.3,24.0,29.85,NNW,331,0.0,0.0,87,0.00,,OVC010,0.00,VWS V14.00,2013-12-22 22:20:00,
2013-12-22 16:29:00,27.3,24.0,29.85,NNW,331,0.0,0.0,87,0.00,,OVC010,0.00,VWS V14.00,2013-12-22 22:29:00,
2013-12-22 16:39:00,27.1,23.8,29.88,NNW,332,0.0,0.0,87,0.00,,OVC010,0.00,VWS V14.00,2013-12-22 22:39:00,
2013-12-22 16:49:00,27.1,23.5,29.88,NNW,332,0.0,0.0,86,0.00,,OVC010,0.00,VWS V14.00,2013-12-22 22:49:00,
2013-12-22 16:59:00,27.1,23.5,29.88,NNW,331,0.0,0.0,86,0.00,,OVC010,0.00,VWS V14.00,2013-12-22 22:59:00,
2013-12-22 17:10:00,27.1,23.5,29.88,NNW,331,0.0,0.0,86,0.00,,OVC010,0.00,VWS V14.00,2013-12-22 23:10:00,
2013-12-22 17:19:00,27.0,23.3,29.88,NNW,332,0.0,0.0,86,0.00,,OVC010,0.00,VWS V14.00,2013-12-22 23:19:00,
2013-12-22 17:29:00,27.0,23.3,29.88,NNW,331,0.0,0.0,86,0.00,,OVC010,0.00,VWS V14.00,2013-12-22 23:29:00,
2013-12-22 17:39:00,26.8,22.9,29.88,NNW,332,0.0,0.0,85,0.00,,OVC010,0.00,VWS V14.00,2013-12-22 23:39:00,
2013-12-22 17:49:00,26.6,22.7,29.88,NNW,332,0.0,0.0,85,0.00,,OVC012,0.00,VWS V14.00,2013-12-22 23:49:00,
2013-12-22 17:59:00,26.6,22.7,29.91,NNW,331,0.0,0.0,85,0.00,,OVC014,0.00,VWS V14.00,2013-12-22 23:59:00,
2013-12-22 18:09:00,26.6,22.7,29.91,NNW,331,0.0,0.0,85,0.00,,OVC014,0.00,VWS V14.00,2013-12-23 00:09:00,
2013-12-22 18:19:00,26.6,22.7,29.91,NNW,331,0.0,0.0,85,0.00,,OVC014,0.00,VWS V14.00,2013-12-23 00:19:00,
2013-12-22 18:29:00,26.6,22.7,29.91,NNW,331,0.0,0.0,85,0.00,,OVC014,0.00,VWS V14.00,2013-12-23 00:29:00,
2013-12-22 18:39:00,26.6,22.7,29.91,NNW,331,0.0,0.0,85,0.00,,OVC014,0.00,VWS V14.00,2013-12-23 00:39:00,
2013-12-22 18:49:00,26.8,22.9,29.91,NNW,331,0.0,0.0,85,0.00,,OVC040,0.00,VWS V14.00,2013-12-23 00:49:00,
2013-12-22 18:59:00,26.8,22.9,29.91,NNW,331,0.0,0.0,85,0.00,,OVC040,0.00,VWS V14.00,2013-12-23 00:59:00,
2013-12-22 19:09:00,26.8,22.9,29.94,NNW,331,0.0,0.0,85,0.00,,OVC040,0.00,VWS V14.00,2013-12-23 01:09:00,
2013-12-22 19:19:00,26.6,22.4,29.94,NNW,331,0.0,0.0,84,0.00,,OVC040,0.00,VWS V14.00,2013-12-23 01:19:00,
2013-12-22 19:29:00,26.6,22.4,29.94,NNW,331,0.0,0.0,84,0.00,,OVC040,0.00,VWS V14.00,2013-12-23 01:29:00,
2013-12-22 19:39:00,26.8,22.6,29.94,NNW,331,0.0,0.0,84,0.00,,OVC040,0.00,VWS V14.00,2013-12-23 01:39:00,
2013-12-22 19:49:00,26.8,22.6,29.94,NNW,331,0.0,0.0,84,0.00,,,0.00,VWS V14.00,2013-12-23 01:49:00,
2013-12-22 19:58:00,26.8,22.6,29.94,NNW,331,0.0,0.0,84,0.00,,,0.00,VWS V14.00,2013-12-23 01:58:00,
2013-12-22 20:10:00,26.8,22.6,29.94,NNW,331,0.0,0.0,84,0.00,,OVC039,0.00,VWS V14.00,2013-12-23 02:10:00,
2013-12-22 20:20:00,26.8,22.9,29.94,NNW,332,0.0,0.0,85,0.00,,OVC039,0.00,VWS V14.00,2013-12-23 02:20:00,
2013-12-22 20:30:00,26.8,22.9,29.97,NNW,331,0.0,0.0,85,0.00,,OVC039,0.00,VWS V14.00,2013-12-23 02:30:00,
2013-12-22 20:39:00,26.8,23.2,29.97,NNW,331,0.0,0.0,86,0.00,,,0.00,VWS V14.00,2013-12-23 02:39:00,
2013-12-22 20:49:00,26.8,23.2,29.97,NNW,331,0.0,0.0,86,0.00,,,0.00,VWS V14.00,2013-12-23 02:49:00,
2013-12-22 20:59:00,26.8,23.2,29.97,NNW,331,0.0,0.0,86,0.00,,,0.00,VWS V14.00,2013-12-23 02:59:00,
2013-12-22 21:09:00,26.6,23.3,29.97,NNW,331,0.0,0.0,87,0.00,,,0.00,VWS V14.00,2013-12-23 03:09:00,
2013-12-22 21:19:00,26.6,23.3,29.97,NNW,331,0.0,0.0,87,0.00,,,0.00,VWS V14.00,2013-12-23 03:19:00,
2013-12-22 21:29:00,26.6,23.3,29.97,NNW,331,0.0,0.0,87,0.00,,OVC020,0.00,VWS V14.00,2013-12-23 03:29:00,
2013-12-22 21:39:00,26.6,23.3,29.97,NNW,331,0.0,0.0,87,0.00,,OVC020,0.00,VWS V14.00,2013-12-23 03:39:00,
2013-12-22 21:49:00,26.6,23.5,29.97,NNW,331,0.0,0.0,88,0.00,,OVC020,0.00,VWS V14.00,2013-12-23 03:49:00,
2013-12-22 21:59:00,26.6,23.5,29.97,NNW,331,0.0,0.0,88,0.00,,OVC020,0.00,VWS V14.00,2013-12-23 03:59:00,
2013-12-22 22:09:00,26.6,23.5,30.00,NNW,331,0.0,0.0,88,0.00,,,0.00,VWS V14.00,2013-12-23 04:09:00,
2013-12-22 22:19:00,26.1,23.0,30.00,NNW,331,0.0,0.0,88,0.00,,,0.00,VWS V14.00,2013-12-23 04:19:00,
2013-12-22 22:29:00,25.7,22.6,30.00,NNW,332,0.0,0.0,88,0.00,,,0.00,VWS V14.00,2013-12-23 04:29:00,
2013-12-22 22:39:00,25.3,22.3,30.00,NNW,331,0.0,0.0,88,0.00,,,0.00,VWS V14.00,2013-12-23 04:39:00,
2013-12-22 22:49:00,25.2,21.8,30.00,NNW,332,0.0,0.0,87,0.00,,OVC016,0.00,VWS V14.00,2013-12-23 04:49:00,
2013-12-22 22:59:00,25.0,21.7,30.00,NNW,331,0.0,0.0,87,0.00,,OVC016,0.00,VWS V14.00,2013-12-23 04:59:00,
2013-12-22 23:10:00,24.4,21.1,30.00,NNW,331,0.0,0.0,87,0.00,,OVC016,0.00,VWS V14.00,2013-12-23 05:10:00,
2013-12-22 23:20:00,24.3,21.0,30.00,NNW,331,0.0,0.0,87,0.00,,OVC016,0.00,VWS V14.00,2013-12-23 05:20:00,
2013-12-22 23:30:00,24.1,20.8,30.03,NNW,331,0.0,0.0,87,0.00,,,0.00,VWS V14.00,2013-12-23 05:30:00,
2013-12-22 23:39:00,23.7,20.1,30.03,NNW,331,0.0,0.0,86,0.00,,,0.00,VWS V14.00,2013-12-23 05:39:00,
2013-12-22 23:49:00,23.5,20.0,30.03,NNW,331,0.0,0.0,86,0.00,,,0.00,VWS V14.00,2013-12-23 05:49:00,
2013-12-22 23:59:00,23.2,19.6,30.03,NNW,331,0.0,0.0,86,0.00,,,0.00,VWS V14.00,2013-12-23 05:59:00,